Regional Weather Roundup
Issued by NWS Midland/Odessa, TX

Skip options and go directly to product.
Home | Oldest Version | Next Version | Current Version | All | Text Only | Save Text | Print | Product List | Glossary On

Skip product version selection by date and time.   
721
ASUS44 KMAF 271201
RWRMAF
MIDLAND AREA WEATHER ROUNDUP
NATIONAL WEATHER SERVICE MIDLAND TX
700 AM CDT SAT AUG 27 2016

...IN SOUTHWEST TEXAS AND SOUTHEAST NEW MEXICO...

CITY           SKY/WX    TMP DP  RH WIND       PRES   REMARKS
ALPINE         CLEAR     61  58  90 CALM      30.21R
ANDREWS        NOT AVBL
ARTESIA        CLEAR     64  64 100 SE6       30.09S
BIG SPRING     PTCLDY    68  66  93 CALM      30.10S
CARLSBAD       CLEAR     65  63  93 CALM      30.08R
DRYDEN           N/A     69  68  96 NE5       30.03S
FORT STOCKTON  MOCLDY    66  63  90 SE6       30.07R
GUAD PASS      CLEAR     62  58  86 W8        30.21R
HOBBS          CLEAR     63  63 100 E5        30.12R
MARFA          CLEAR    N/A N/A N/A NE5       30.19R
MIDLAND AIRPK  CLEAR     71  66  84 E3        30.09S
MIDLAND INTL   MOCLDY    70  65  84 SE5       30.08S
ODESSA         PTCLDY    68  63  84 E6        30.09S
PECOS          CLEAR     66  63  88 CALM      30.05R
PRESIDIO       NOT AVBL
SEMINOLE       CLEAR     65  64  96 CALM      30.11S
SNYDER           N/A     68  67  97 S5        30.08S
WINK           CLEAR     68  64  87 E7        30.04S
$$
...OTHER STATIONS IN TEXAS...

CITY           SKY/WX    TMP DP  RH WIND       PRES   REMARKS
ABILENE        CLOUDY    73  69  87 S5        30.05R
AMARILLO       CLEAR     61  58  90 SW9       30.09S
AUSTIN         MOCLDY    72  71  97 CALM      30.00R
BROWNSVILLE    CLEAR     75  74  96 CALM      29.92S
CORPUS CHRISTI PTCLDY    76  75  97 N6        29.95R
DALLAS FTW     PTCLDY    73  70  90 SE3       30.01R
DEL RIO        MOCLDY    74  72  93 E7        29.98F
EL PASO        MOCLDY    71  60  68 N7        30.09R
HOUSTON INT    CLOUDY    75  73  93 N3        29.97R
LUBBOCK        PTCLDY    65  62  90 S9        30.07F
SAN ANGELO     CLOUDY    70  67  90 SW3       30.06R
SAN ANTONIO    MOCLDY    75  71  87 CALM      30.01R
WACO           CLEAR     72  72 100 NE3       30.01R FOG
WICHITA FALLS  NOT AVBL
$$
...OTHER LOCATIONS IN NEW MEXICO...

CITY           SKY/WX    TMP DP  RH WIND       PRES   REMARKS
ALAMAGORDO     CLOUDY    63  57  82 N7        30.13S
ALBUQUERQUE    PTCLDY    60  49  66 E8        30.17F
CANNON AFB     CLEAR     60  60 100 SW6       30.13F
CLOVIS         CLEAR     61  55  82 SW12      30.12F
HOLLOMAN AFB   NOT AVBL
ROSWELL        CLEAR     64  60  87 E3        30.09R
RUIDOSO          N/A     54  48  82 CALM      30.29R
SANTA FE       CLEAR     52  48  86 N6        30.22S
TRUTH OR CONSE PTCLDY    62  53  72 W5        30.14R
TUCUMCARI      CLEAR     64  62  93 SW7       30.11S
$$

USA.gov is the U.S. government's official web portal to all federal, state and local government web resources and services.